Regional Weather Roundup
Issued by NWS

Home | Current Version | Previous Version | Text Only | Print | Product List | Glossary On
Versions: 1 2 3 4 5 6 7 8 9 10 11 12 13 14 15 16 17 18 19 20 21 22 23 24 25 26 27 28 29 30 31 32 33 34 35 36 37 38 39 40 41 42 43 44 45 46 47 48 49 50
000
ASUS44 KOUN 180000
RWROK

WEATHER ROUNDUP FOR OKLAHOMA
NATIONAL WEATHER SERVICE NORMAN OK
600 PM CST SUN DEC 17 2017

NOTE: "FAIR" INDICATES FEW OR NO CLOUDS BELOW 12,000 FEET WITH NO
      SIGNIFICANT WEATHER AND/OR OBSTRUCTIONS TO VISIBILITY.

OKZ001>007-009>012-014-015-017-180100-
NORTHWEST OKLAHOMA AND THE PANHANDLE

CITY           SKY/WX    TMP DP  RH WIND       PRES   REMARKS
GAGE           CLEAR     34  28  79 S7        30.02R WCI  28
6HR MIN TEMP:  34; 6HR MAX TEMP:  47;

GUYMON         CLEAR     41  28  60 CALM      30.01R
ENID/WOODRING  CLOUDY    46  43  87 S9        30.03R
$$

OKZ016-021>023-033>039-044-045-180100-
SOUTHWEST OKLAHOMA

CITY           SKY/WX    TMP DP  RH WIND       PRES   REMARKS
LAWTON/REGL    CLOUDY    46  42  86 E5        30.04R
6HR MIN TEMP:  46; 6HR MAX TEMP:  52;

LAWTON/FT SILL CLOUDY    44  44  98 E5        30.03R
FREDERICK      CLOUDY    47  37  68 NW3       30.01R
CLINTON        CLOUDY    43  35  73 S6        30.04R
HOBART         CLOUDY    45  37  73 S3        30.04S
ALTUS AFB      CLOUDY    42  34  73 E5        30.03S
$$

OKZ018>020-024>031-180100-
CENTRAL OKLAHOMA

CITY           SKY/WX    TMP DP  RH WIND       PRES   REMARKS
OKLAHOMA CITY  CLOUDY    44  43  96 CALM      30.05S
6HR MIN TEMP:  44; 6HR MAX TEMP:  45; 6HR PCP: TRACE;

OKC/WILEY POST CLOUDY    46  44  93 S5        30.05S
OKC/TINKER AFB CLOUDY    44  44  99 S8        30.05R
STILLWATER     CLOUDY    45  42  89 S7        30.06R
GUTHRIE        CLOUDY    45  43  93 SE3       30.06R
$$

OKZ008-013-054>072-180100-
NORTHEAST OKLAHOMA

CITY           SKY/WX    TMP DP  RH WIND       PRES   REMARKS
TULSA          CLOUDY    46  45  96 S7        30.08R FOG
6HR MIN TEMP:  46; 6HR MAX TEMP:  48; 6HR PCP: TRACE;

TULSA/JONES    CLOUDY    46  44  93 S3        30.08S FOG
PONCA CITY     CLOUDY    46  41  82 S5        30.04R
BARTLESVILLE   CLOUDY    46  42  86 S6        30.08R
MUSKOGEE       CLOUDY    46  46 100 CALM      30.10R FOG
$$

OKZ032-040>043-046>053-073>077-180100-
SOUTH CENTRAL/SOUTHEAST OKLAHOMA

CITY           SKY/WX    TMP DP  RH WIND       PRES   REMARKS
MCALESTER      CLOUDY    48  46  93 CALM      30.08S FOG
$$





USA.gov is the U.S. government's official web portal to all federal, state and local government web resources and services.